Location: Fort Wayne
(41.1310°N, 85.1290°W)
Time: 11:25:59
(UTC-04:00)

BREEZE-M DEB (TANK) - Visible Passes

Search period start: 20 August 2017 00:00
Search period end: 30 August 2017 00:00
Orbit: 266 x 13265 km, 49.5° (Epoch: 15 August)

Date Brightness Start Highest point End Pass type
(mag) Time Alt. Az. Time Alt. Az. Time Alt. Az.
20 Aug 5.2 02:56:15 30° ESE 02:56:15 30° ESE 03:03:27 10° ESE visible
21 Aug 4.6 03:56:34 45° S 03:56:34 45° S 04:10:04 10° SE visible
22 Aug 5.1 04:56:54 30° SW 04:58:02 31° SSW 05:15:05 10° SSE visible
22 Aug 2.0 21:14:26 10° WSW 21:18:37 66° NNW 21:20:43 10° NE visible
23 Aug 5.8 05:57:15 14° WSW 06:02:15 18° SW 06:16:09 10° S visible
23 Aug 3.6 22:18:28 10° WNW 22:20:22 18° NNW 22:20:57 17° N visible
24 Aug 6.2 02:47:32 18° SE 02:47:32 18° SE 02:51:31 10° SE visible
25 Aug 5.8 03:47:52 27° SSE 03:47:52 27° SSE 03:57:17 10° SSE visible
26 Aug 5.9 04:48:12 24° SSW 04:48:12 24° SSW 05:01:02 10° SSE visible
26 Aug 2.7 21:02:27 10° WSW 21:06:33 47° NNW 21:08:38 10° NE visible
27 Aug 6.4 05:48:31 14° SW 05:50:36 14° SW 05:59:51 10° S visible
27 Aug 3.8 22:06:38 10° WNW 22:08:17 16° NNW 22:09:03 14° N visible
28 Aug 6.9 02:38:45 11° SE 02:38:45 11° SE 02:39:05 10° SE visible
29 Aug 6.7 03:39:01 17° SSE 03:39:01 17° SSE 03:43:57 10° SSE visible
